Zurück zum Katalog

AMC-10

GE-10

AktivKommunikationGEO
NORAD 28154·PAYLOAD·🇱🇺 Luxembourg

Gestartet Feb 5, 2004 von Cape Canaveral Space Force Station

Loading…

TLE

AktuellSource: Space-Track

Epoche: Sep 14, 2026, 11:42 UTC

1 28154U 04003A   26257.48773275 -.00000084  00000-0  00000-0 0  9995
2 28154   6.9092  67.9729 0004790 119.4363 260.2433  0.99119348 82469

Verfolge AMC-10 in Echtzeit mit AllMySat

Download on the App Store